#timestamp,LO_Frequency,Hit,StdDev 
1576594815.4,286047000.7,N
1576594835.3,286046998.4,N
1576594855.1,286046999.7,N
1576594875.9,286047000.4,N
1576594895.7,286046998.7,N
1576594915.5,286046998.3,N
1576594935.4,286046996.7,N
1576594955.2,286046996.9,N
1576594975.0,286046997.0,N
1576594975.9,286046997.0,N
1576594995.8,286046998.9,N
1576595015.6,286047000.2,N
1576595035.5,286047000.9,N
1576595055.3,286047001.2,N
1576595075.1,286046998.8,N
1576595095.9,286046998.8,N
1576595115.7,286046998.7,N
1576595135.5,286046998.2,N
1576595155.4,286046998.4,N
1576595175.2,286046997.0,N
1576595195.1,286046994.9,Y
1576595196.0,286046994.9,P
1576595215.8,286046997.0,N
1576595235.6,286046999.6,N
1576595255.5,286046996.5,N
1576595275.3,286046997.2,N
1576595295.1,286046997.2,N
1576595315.9,286046996.9,N
1576595335.7,286046998.0,N
1576595355.6,286046995.7,Y
1576595375.4,286046998.1,P
1576595395.2,286046999.9,N
1576595415.1,286047002.5,N
1576595416.0,286047002.5,N
1576595435.8,286047002.3,N
1576595455.7,286047000.2,N
1576595475.5,286046998.5,N
1576595495.3,286046998.9,N
1576595515.2,286046996.8,N
1576595535.0,286046995.3,N
1576595535.9,286046995.3,N
1576595555.8,286046995.1,N
1576595575.6,286046993.5,N
1576595595.4,286046994.4,N
1576595615.3,286046994.3,N
1576595635.1,286046992.4,N
1576595636.0,286046992.4,N
1576595655.8,286046992.5,N
1576595675.7,286046992.2,N
1576595695.5,286046993.2,N
1576595715.4,286046992.0,N
1576595735.2,286046994.7,N
1576595755.0,286046994.8,N
1576595755.9,286046994.8,N
1576595775.8,286046991.7,N
1576595795.6,286046994.2,N
1576595815.4,286046992.1,N
1576595835.3,286046994.8,N
1576595855.1,286046993.6,N
1576595875.9,286046994.3,N
1576595895.7,286046996.3,N
1576595915.5,286046996.0,N
1576595935.4,286046995.6,N
1576595955.2,286046994.9,N
1576595975.0,286046997.2,N
1576595976.0,286046997.2,N
1576595995.8,286046997.1,N
1576596015.6,286046996.9,N
1576596035.5,286046997.3,N
1576596055.3,286046997.4,N
1576596075.1,286046997.8,N
1576596095.9,286046996.4,N
1576596115.7,286046996.3,N
1576596135.6,286046995.5,N
1576596155.4,286046993.3,Y
1576596175.2,286047002.0,P
1576596195.1,286047000.3,N
1576596196.0,286047000.3,N
1576596215.8,286047000.5,N
1576596235.7,286047000.9,N
1576596255.5,286046999.8,N
1576596275.3,286047002.3,N
1576596295.2,286047000.2,N
1576596315.0,286047000.6,N
1576596315.9,286047000.6,N
1576596335.7,286047011.9,Y
1576596355.6,286046998.2,P
1576596375.4,286047001.2,N
1576596395.3,286046998.1,N
1576596415.1,286046998.1,N
1576596435.8,286046998.5,N
1576596455.7,286046998.4,N
1576596475.5,286047001.2,N
1576596495.4,286047000.9,N
1576596515.2,286046998.2,N
1576596535.0,286047000.6,N
1576596535.9,286047000.6,N
1576596555.8,286047000.3,N
1576596575.6,286047000.5,N
1576596595.4,286047002.0,N
1576596615.3,286047001.8,N
1576596635.1,286047002.8,N
1576596655.9,286047002.4,N
1576596675.7,286047002.1,N
1576596695.5,286047001.8,N
1576596715.4,286047004.4,N
1576596735.2,286047001.6,N
1576596755.0,286047002.7,N
1576596755.9,286047002.7,N
1576596775.8,286047001.4,N
1576596795.6,286047003.6,N
1576596815.5,286047004.3,N
1576596835.3,286047003.2,N
1576596855.1,286047001.4,N
1576596875.9,286047001.4,N
1576596895.7,286047001.9,N
1576596915.5,286047004.3,N
1576596935.4,286047002.2,N
1576596955.2,286047001.4,N
1576596975.1,286047004.3,N
1576596976.0,286047004.3,N
1576596995.8,286047003.6,N
1576597015.6,286047003.5,N
1576597035.5,286047004.2,N
1576597055.3,286047001.3,N
1576597075.1,286047004.4,Y
1576597095.9,286046998.2,P
1576597115.7,286047001.2,N
1576597135.6,286047001.0,N
1576597155.4,286047001.0,N
1576597175.2,286047000.8,N
1576597195.1,286047002.8,N
1576597196.0,286047002.8,N
1576597215.8,286047000.1,N
1576597235.7,286047002.4,N
1576597255.5,286047002.1,N
1576597275.3,286047004.0,Y
1576597295.2,286047002.3,P
1576597315.0,286047000.3,N
1576597315.9,286047000.3,N
1576597335.7,286047000.3,N
1576597355.6,286047002.0,N
1576597375.4,286047004.3,Y
1576597395.3,286047000.2,P
1576597415.1,286047001.2,N
1576597435.8,286046998.2,P
1576597455.7,286046998.6,N
1576597475.5,286047001.2,N
1576597495.3,286047001.1,N
1576597515.2,286046998.5,N
1576597535.0,286047000.4,N
1576597535.9,286047000.4,N
1576597555.8,286047000.3,N
1576597575.6,286047000.4,N
1576597595.4,286047000.3,N
1576597615.3,286047000.9,N
1576597635.1,286046999.0,N
1576597655.9,286046998.3,N
1576597675.7,286046998.5,N
1576597695.5,286046999.9,N
1576597715.4,286047001.2,N
1576597735.2,286047000.1,N
1576597755.0,286047002.5,N
1576597755.9,286047002.5,N
1576597775.8,286047002.1,N
1576597795.6,286047001.3,N
1576597815.5,286047003.9,Y
1576597835.3,286047003.7,P
1576597855.1,286047004.2,N
1576597875.9,286047004.2,N
1576597895.7,286047004.0,N
1576597915.5,286047003.6,N
1576597935.4,286047003.4,N
1576597955.2,286047004.2,Y
1576597975.1,286047001.1,P
1576597976.0,286047001.1,N
1576597995.8,286047000.9,N
1576598015.6,286046998.2,N
1576598035.5,286046999.8,N
1576598055.3,286047001.9,N
1576598075.1,286047002.2,N
1576598095.9,286047002.0,N
1576598115.7,286047004.3,Y
1576598135.6,286047002.6,P
1576598155.4,286047002.1,N
1576598175.2,286047001.9,P
1576598195.1,286047001.5,N
1576598196.0,286047001.5,N
1576598215.8,286047002.2,Y
1576598235.7,286047000.4,P
1576598255.5,286046999.9,N
1576598275.3,286047002.2,N
1576598295.2,286047002.8,N
1576598315.0,286046999.9,N
1576598315.9,286046999.9,N
1576598335.7,286047000.6,N
1576598355.6,286047001.0,N
1576598375.4,286047000.4,N
1576598395.3,286047000.2,N
